Lexington Weather

Lexington, Massachusetts, USA

33°F
10/30/2020 7:28am 
  • Lexington Conditions: Light snow, Mist, Overcast
  • Temperature: 33.4°F / 0.8°CColder 0.9°F than last hour.
  • Dew Point: 32.7°FDecreased 0.9°Fsince last hour.
  • Relative Humidity: 97
  • Wind: Wind from NNE NNE 2 mph, 10-min avg: 2 mph, gust: 6 mph
  • Barometer: 29.78 inRising 0.03  inHg/hr Rising Slowly
  • Visibility: 3 miles
  • Rain Today: 0.09 in
  •   
Southeast Middlesex County - Winter Weather Advisory
 - SEE ALL NEARBY ALERTS -

Regional Weather Roundup
for Boston / Norton, MA

        
000
ASUS41 KBOX 261505
RWRBOX

REGIONAL WEATHER ROUNDUP
NATIONAL WEATHER SERVICE BOSTON/NORTON MA
1100 AM EDT MON OCT 26 2020

NOTE:  "FAIR" INDICATES FEW OR NO CLOUDS BELOW 12,000 FEET WITH NO 
SIGNIFICANT WEATHER AND/OR OBSTRUCTIONS TO VISIBILITY.

MAZALL-261600-
EASTERN MASSACHUSETTS
  
CITY           SKY/WX    TMP DP  RH WIND       PRES   REMARKS
BOSTON         CLOUDY    51  43  74 E15       30.29F                  
BEVERLY        CLOUDY    50  46  86 NE6       30.28F                  
LAWRENCE       CLOUDY    43  42  97 N5        30.31F                  
BEDFORD        CLOUDY    44  43  96 N5        30.28F                  
BLUE HILL        N/A     49  43  80 E10       30.25F                  
NORWOOD        CLOUDY    53  43  68 E7        30.27F                  
MARSHFIELD     CLOUDY    55  45  67 SE9       30.27F                  
PLYMOUTH       CLOUDY    53  45  74 E9        30.26F                  
TAUNTON        CLOUDY    54  44  69 E7        30.26F                  
NEW BEDFORD    CLOUDY    54  46  74 E9        30.25F                  
$$

MAZALL-261600-
CAPE COD AND THE ISLANDS
  
CITY           SKY/WX    TMP DP  RH WIND       PRES   REMARKS
FALMOUTH       CLOUDY    52  48  87 E9        30.26F                  
HYANNIS        CLOUDY    54  49  83 E6        30.24F                  
CHATHAM        CLOUDY    54  47  77 E7        30.27F                  
PROVINCETOWN   CLOUDY    52  49  89 E7        30.29F                  
NANTUCKET      CLOUDY    55  48  77 E15       30.24F                  
MARTHAS VNYRD  LGT RAIN  54  50  86 E9        30.24F                  
$$
 
MAZALL-261600-
CENTRAL AND WESTERN MASSACHUSETTS
  
CITY           SKY/WX    TMP DP  RH WIND       PRES   REMARKS
WORCESTER      CLOUDY    43  40  89 NE7       30.25F FOG              
FITCHBURG      LGT RAIN  42  40  92 NE3       30.30F FOG              
ORANGE         CLOUDY    43  41  93 N3        30.28F FOG              
SPRINGFIELD    CLOUDY    46  44  95 N6        30.25F                  
WESTFIELD      CLOUDY    44  43  96 N8        30.26F FOG              
NORTH ADAMS    CLOUDY    44  40  85 E12G17    30.23F                  
PITTSFIELD     LGT RAIN  43  41  93 NE6       30.21F FOG              
$$
 
RIZALL-261600-
RHODE ISLAND
  
CITY           SKY/WX    TMP DP  RH WIND       PRES   REMARKS
PROVIDENCE     CLOUDY    53  45  74 E9        30.26F                  
NEWPORT        CLOUDY    53  47  79 E10       30.24F                  
BLOCK ISLAND   CLOUDY    52  50  93 E14G23    30.23F                  
SMITHFIELD     CLOUDY    50  45  83 E8        30.25F                  
WESTERLY       CLOUDY    55  48  77 E15G21    30.24F                  
$$
 
CTZALL-261600-
CONNECTICUT
  
CITY           SKY/WX    TMP DP  RH WIND       PRES   REMARKS
BRADLEY INTL   CLOUDY    46  43  89 N8        30.25F                  
HARTFORD       CLOUDY    49  43  80 N6        30.24F                  
BRIDGEPORT     CLOUDY    52  47  83 NE10      30.21F                  
DANBURY        CLOUDY    48  44  86 E7        30.22F                  
GROTON         CLOUDY    56  50  80 E15G24    30.22F                  
NEW HAVEN      CLOUDY    54  47  77 NE8       30.22F                  
CHESTER        CLOUDY    52  46  82 E5        30.21F                  
MERIDEN        CLOUDY    49  42  77 N7        30.24F                  
WILLIMANTIC    CLOUDY    50  42  74 E5        30.24F                  
OXFORD         CLOUDY    46  44  93 E9        30.22F                  
$$

MEZ002-015-021-024-NHZ003-005-008-011-012-014-VTZ005-008-261600-
NORTHERN NEW ENGLAND
  
CITY           SKY/WX    TMP DP  RH WIND       PRES   REMARKS
PORTLAND ME    CLOUDY    41  38  89 N3        30.35F                  
BANGOR ME      CLOUDY    39  29  67 E5        30.38F                  
CONCORD NH     CLOUDY    40  37  89 NE7       30.31F FOG              
MANCHESTER NH  CLOUDY    44  40  85 NE7       30.29F FOG              
NASHUA NH      LGT RAIN  42  42 100 N3        30.31F FOG              
PORTSMOUTH NH  CLOUDY    42  41  95 N6        30.29F FOG              
JAFFREY NH     CLOUDY    38  36  92 N3        30.28F FOG              
KEENE NH       CLOUDY    41  40  96 NW3       30.29F                  
BURLINGTON VT  CLOUDY    42  37  82 S10       30.19F                  
MT. WASHINGTON NOT AVBL                                               
$$

NYZ052-076-261600-
EASTERN NEW YORK
  
CITY           SKY/WX    TMP DP  RH WIND       PRES   REMARKS
ALBANY         LGT RAIN  42  42 100 SE9       30.21F FOG              
NEW YORK CITY  CLOUDY    56  52  86 E10       30.18S                  
$$
 
ANZALL-261600-
MARINE OBSERVATIONS
  
STATION/POSITION TIME  TEMP    WIND        PRES    VSBY  WAVE
                       AIR SEA DIR/SP/G                  HT/PER
                 (UTC) (F)     (DEG/KT/KT) (MB)    (MI)  (FT/S)
BOSTON BUOY      1450   53 57  110/ 12/ 14 1024.6F         4/ 6
BUZZARDS BAY     1400           90/ 17/ 18 1025.6F
NANTUCKET SOUND  1450      61   80/ 12/ 16   N/A           2/ 4
MASS BAY-STELLWA 1404   53 56  110/ 14/ 16 1025.4F  1 7/8  4/ 5
ISLE OF SHOALS   1400   49     100/ 17/ 19 1026.0F
S OF BLOCK IS    1426      62                N/A           6/ 6
$$

......................KEY.........................
  SKY/WX - SKY CONDITION/PRESENT WEATHER
  TMP    - TEMPERATURE IN FAHRENHEIT
  DWPT   - DEWPOINT IN FAHRENHEIT
  RH     - RELATIVE HUMIDITY IN PERCENT
  WIND   - DIRECTION AND SPEED IN MPH
  PRES   - MEAN SEA LEVEL PRESSURE IN INCHES OF HG
  WCI    - WIND CHILL INDEX
  VSB    - VISIBILITY IN MILES
  HX     - HEAT INDEX
  TC     - TEMPERATURE IN CELSIUS
  VRB    - VARIABLE WIND DIRECTION
  N/A    - NOT AVAILABLE
  
      

Other recent Regional Weather Roundups

Fri Oct 30, 7:04am

Fri Oct 30, 6:04am

Fri Oct 30, 5:04am

Fri Oct 30, 4:04am

Fri Oct 30, 3:04am

Fri Oct 30, 2:04am

Fri Oct 30, 1:04am

Fri Oct 30, 12:04am

Thu Oct 29, 11:04pm

Thu Oct 29, 10:04pm

Thu Oct 29, 9:04pm

Thu Oct 29, 8:04pm

Thu Oct 29, 7:04pm

Thu Oct 29, 6:04pm

Thu Oct 29, 5:05pm

Thu Oct 29, 4:05pm

Thu Oct 29, 3:05pm

Thu Oct 29, 2:04pm

Thu Oct 29, 1:04pm

Thu Oct 29, 12:04pm

Thu Oct 29, 11:04am

Thu Oct 29, 10:04am

Thu Oct 29, 9:04am

Thu Oct 29, 8:04am

Thu Oct 29, 7:04am

Thu Oct 29, 6:04am

Thu Oct 29, 5:04am

Thu Oct 29, 4:04am

Thu Oct 29, 3:04am

Thu Oct 29, 2:04am

Thu Oct 29, 1:05am

Thu Oct 29, 12:04am

Wed Oct 28, 11:05pm

Wed Oct 28, 10:04pm

Wed Oct 28, 9:04pm

Wed Oct 28, 8:04pm

Wed Oct 28, 7:05pm

Wed Oct 28, 6:04pm

Wed Oct 28, 5:05pm

Wed Oct 28, 4:04pm

Wed Oct 28, 3:04pm

Wed Oct 28, 2:04pm

Wed Oct 28, 1:05pm

Wed Oct 28, 12:05pm

Wed Oct 28, 11:05am

Wed Oct 28, 10:04am

Wed Oct 28, 9:04am

Wed Oct 28, 8:04am

Wed Oct 28, 7:04am

Wed Oct 28, 6:04am

Wed Oct 28, 5:05am

Wed Oct 28, 4:04am

Wed Oct 28, 3:04am

Wed Oct 28, 2:04am

Wed Oct 28, 1:05am

Wed Oct 28, 12:04am

Tue Oct 27, 11:04pm

Tue Oct 27, 10:04pm

Tue Oct 27, 9:05pm

Tue Oct 27, 8:04pm

Tue Oct 27, 7:04pm

Tue Oct 27, 6:04pm

Tue Oct 27, 5:04pm

Tue Oct 27, 4:05pm

Tue Oct 27, 3:04pm

Tue Oct 27, 2:04pm

Tue Oct 27, 1:04pm

Tue Oct 27, 12:04pm

Tue Oct 27, 11:04am

Tue Oct 27, 10:04am

Tue Oct 27, 9:04am

Tue Oct 27, 8:04am

Tue Oct 27, 7:04am

Tue Oct 27, 6:04am

Tue Oct 27, 5:04am

Tue Oct 27, 4:04am

Tue Oct 27, 3:04am

Tue Oct 27, 2:05am

Tue Oct 27, 1:04am

Tue Oct 27, 12:04am

Mon Oct 26, 11:05pm

Mon Oct 26, 10:04pm

Mon Oct 26, 9:04pm

Mon Oct 26, 8:04pm

Mon Oct 26, 7:04pm

Mon Oct 26, 6:04pm

Mon Oct 26, 5:04pm

Mon Oct 26, 4:05pm

Mon Oct 26, 2:04pm

Mon Oct 26, 1:04pm

Mon Oct 26, 12:04pm

Mon Oct 26, 10:04am

Mon Oct 26, 9:04am

Mon Oct 26, 8:04am

Mon Oct 26, 7:04am

Mon Oct 26, 6:04am

Mon Oct 26, 5:04am

Mon Oct 26, 4:04am

Mon Oct 26, 3:04am

Mon Oct 26, 2:04am

Mon Oct 26, 1:04am

Mon Oct 26, 12:04am

Sun Oct 25, 11:05pm

Sun Oct 25, 10:04pm

Sun Oct 25, 9:04pm

Sun Oct 25, 8:04pm

Sun Oct 25, 7:04pm

Sun Oct 25, 6:04pm

Sun Oct 25, 5:04pm

Sun Oct 25, 4:05pm

Sun Oct 25, 3:04pm

Sun Oct 25, 2:04pm

Sun Oct 25, 1:04pm

Sun Oct 25, 12:04pm

Sun Oct 25, 11:04am

Sun Oct 25, 10:04am

Sun Oct 25, 9:04am

Sun Oct 25, 8:04am

Sun Oct 25, 7:04am

Sun Oct 25, 6:04am

Sun Oct 25, 5:04am

Sun Oct 25, 4:04am

Sun Oct 25, 3:04am

Sun Oct 25, 2:04am

Sun Oct 25, 1:05am

Sun Oct 25, 12:04am

Sat Oct 24, 11:04pm

Sat Oct 24, 10:04pm

Sat Oct 24, 9:04pm

Sat Oct 24, 8:04pm

Sat Oct 24, 7:04pm

Sat Oct 24, 6:04pm

Sat Oct 24, 5:05pm

Sat Oct 24, 4:04pm

Sat Oct 24, 3:04pm

Sat Oct 24, 2:04pm

Sat Oct 24, 1:05pm

Sat Oct 24, 12:04pm

Sat Oct 24, 11:05am

Sat Oct 24, 10:05am

Sat Oct 24, 9:04am

Sat Oct 24, 8:04am

Sat Oct 24, 7:04am

Sat Oct 24, 6:04am

Sat Oct 24, 5:04am

Sat Oct 24, 4:04am

Sat Oct 24, 3:04am

Sat Oct 24, 2:04am

Sat Oct 24, 1:05am

Sat Oct 24, 12:04am

Fri Oct 23, 11:04pm

Fri Oct 23, 10:04pm

Fri Oct 23, 9:04pm

Fri Oct 23, 8:05pm

Fri Oct 23, 7:04pm

Fri Oct 23, 6:04pm

Fri Oct 23, 5:05pm

Fri Oct 23, 4:04pm

Fri Oct 23, 3:04pm

Fri Oct 23, 2:05pm

Fri Oct 23, 1:04pm

Fri Oct 23, 12:04pm

Fri Oct 23, 11:04am

Fri Oct 23, 10:04am

Fri Oct 23, 9:04am

Fri Oct 23, 8:04am

Meta data:

ID: 17702303-36e4-4328-8f39-d33807b2f1cc
Link: https://api.weather.gov/products/17702303-36e4-4328-8f39-d33807b2f1cc